• în Republica Moldova
  • Lista ţărilor
  • Pe 7 zile
  • Temperatura apei
  • Hartă satelitară
  • Meteo pe hartă
  • Widget-uri
  • user-avatar
    Intrare

    Meteo pe oră la Klagenfurt

    Astăzi, 20 August, Duminică

    Timp Temperatura Precipitaţii Vânt Presiune Umiditate
    00:00 +14°C° 2,5 mm 2 m/s 692 mmHg 96%
    01:00 +14°C° 2,5 mm 2 m/s 692 mmHg 96%
    02:00 +13°C° 0,8 mm 2 m/s 692 mmHg 96%
    03:00 +13°C° 0,8 mm 2 m/s 692 mmHg 96%
    04:00 +12°C° 0,8 mm 2 m/s 692 mmHg 95%
    05:00 +13°C° 0 mm 2 m/s 692 mmHg 93%
    06:00 +13°C° 0 mm 2 m/s 692 mmHg 92%
    07:00 +13°C° 0 mm 1 m/s 692 mmHg 90%
    08:00 +15°C° 0 mm 2 m/s 693 mmHg 79%
    09:00 +17°C° 0 mm 2 m/s 693 mmHg 67%
    10:00 +19°C° 0 mm 2 m/s 694 mmHg 55%
    11:00 +19°C° 0,2 mm 2 m/s 694 mmHg 53%
    12:00 +20°C° 0,2 mm 2 m/s 694 mmHg 52%
    13:00 +21°C° 0,2 mm 2 m/s 694 mmHg 50%
    14:00 +21°C° 0,1 mm 2 m/s 694 mmHg 50%
    15:00 +20°C° 0,1 mm 2 m/s 694 mmHg 51%
    16:00 +20°C° 0,1 mm 2 m/s 694 mmHg 52%
    17:00 +18°C° 0 mm 2 m/s 693 mmHg 60%
    18:00 +16°C° 0 mm 1 m/s 693 mmHg 67%
    19:00 +15°C° 0 mm 1 m/s 693 mmHg 75%
    20:00 +14°C° 0 mm 1 m/s 693 mmHg 77%
    21:00 +13°C° 0 mm 1 m/s 693 mmHg 80%
    22:00 +12°C° 0 mm 1 m/s 694 mmHg 82%
    23:00 +11°C° 0 mm 1 m/s 694 mmHg 83%

    Mâine, 21 August, Luni

    Timp Temperatura Precipitaţii Vânt Presiune Umiditate
    00:00 +10°C° 0 mm 1 m/s 694 mmHg 84%
    01:00 +10°C° 0 mm 1 m/s 694 mmHg 85%
    02:00 +10°C° 0 mm 1 m/s 694 mmHg 86%
    03:00 +9°C° 0 mm 1 m/s 693 mmHg 87%
    04:00 +9°C° 0 mm 1 m/s 693 mmHg 87%
    05:00 +10°C° 0 mm 1 m/s 694 mmHg 83%
    06:00 +11°C° 0 mm 1 m/s 694 mmHg 78%
    07:00 +12°C° 0 mm 1 m/s 694 mmHg 74%
    08:00 +15°C° 0 mm 1 m/s 694 mmHg 64%
    09:00 +18°C° 0 mm 1 m/s 695 mmHg 54%
    10:00 +21°C° 0 mm 1 m/s 695 mmHg 45%
    11:00 +22°C° 0 mm 1 m/s 695 mmHg 41%
    12:00 +23°C° 0 mm 1 m/s 695 mmHg 38%
    13:00 +24°C° 0 mm 1 m/s 695 mmHg 35%
    14:00 +23°C° 0 mm 1 m/s 694 mmHg 36%
    15:00 +23°C° 0 mm 1 m/s 694 mmHg 36%
    16:00 +23°C° 0 mm 1 m/s 694 mmHg 37%
    17:00 +20°C° 0 mm 1 m/s 694 mmHg 47%
    18:00 +18°C° 0 mm 1 m/s 693 mmHg 57%
    19:00 +15°C° 0 mm 1 m/s 693 mmHg 67%
    20:00 +13°C° 0 mm 1 m/s 693 mmHg 69%
    21:00 +12°C° 0 mm 1 m/s 694 mmHg 72%
    22:00 +11°C° 0 mm 1 m/s 694 mmHg 74%
    23:00 +11°C° 0 mm 1 m/s 694 mmHg 76%

    Poimâine, 22 August, Marţi

    Timp Temperatura Precipitaţii Vânt Presiune Umiditate
    00:00 +10°C° 0 mm 1 m/s 694 mmHg 77%
    01:00 +10°C° 0 mm 1 m/s 694 mmHg 78%
    02:00 +10°C° 0 mm 1 m/s 694 mmHg 79%
    03:00 +9°C° 0 mm 1 m/s 693 mmHg 80%
    04:00 +9°C° 0 mm 1 m/s 693 mmHg 81%
    05:00 +11°C° 0 mm 1 m/s 694 mmHg 77%
    06:00 +12°C° 0 mm 1 m/s 694 mmHg 73%
    07:00 +12°C° 0 mm 0 m/s 694 mmHg 70%
    08:00 +15°C° 0 mm 0 m/s 695 mmHg 61%
    09:00 +20°C° 0 mm 1 m/s 695 mmHg 53%
    10:00 +22°C° 0 mm 1 m/s 696 mmHg 45%
    11:00 +23°C° 0 mm 1 m/s 695 mmHg 43%
    12:00 +24°C° 0 mm 1 m/s 695 mmHg 41%
    13:00 +25°C° 0 mm 1 m/s 695 mmHg 39%
    14:00 +25°C° 0 mm 1 m/s 694 mmHg 41%
    15:00 +24°C° 0 mm 1 m/s 694 mmHg 42%
    16:00 +24°C° 0 mm 1 m/s 693 mmHg 43%
    17:00 +21°C° 0 mm 1 m/s 693 mmHg 54%
    18:00 +19°C° 0 mm 1 m/s 692 mmHg 64%
    19:00 +16°C° 0 mm 1 m/s 692 mmHg 74%
    20:00 +15°C° 0 mm 1 m/s 692 mmHg 77%
    21:00 +14°C° 0 mm 1 m/s 692 mmHg 80%
    22:00 +13°C° 0 mm 1 m/s 692 mmHg 83%
    23:00 +13°C° 0 mm 1 m/s 692 mmHg 84%

    23 August, Miercuri

    Timp Temperatura Precipitaţii Vânt Presiune Umiditate
    00:00 +12°C° 0 mm 1 m/s 692 mmHg 85%
    01:00 +11°C° 0 mm 0 m/s 692 mmHg 86%
    02:00 +12°C° 0 mm 1 m/s 692 mmHg 87%
    03:00 +11°C° 0 mm 1 m/s 692 mmHg 87%
    04:00 +11°C° 0 mm 1 m/s 691 mmHg 87%
    05:00 +11°C° 0 mm 0 m/s 692 mmHg 83%
    06:00 +13°C° 0 mm 0 m/s 692 mmHg 79%
    07:00 +14°C° 0 mm 0 m/s 693 mmHg 75%
    08:00 +18°C° 0 mm 1 m/s 693 mmHg 66%
    09:00 +21°C° 0 mm 1 m/s 694 mmHg 57%
    10:00 +23°C° 0 mm 1 m/s 694 mmHg 49%
    11:00 +25°C° 0 mm 1 m/s 694 mmHg 46%
    12:00 +26°C° 0 mm 1 m/s 694 mmHg 44%
    13:00 +27°C° 0 mm 1 m/s 694 mmHg 41%
    14:00 +26°C° 0 mm 1 m/s 694 mmHg 43%
    15:00 +26°C° 0 mm 1 m/s 694 mmHg 44%
    16:00 +25°C° 0 mm 1 m/s 694 mmHg 46%
    17:00 +23°C° 0 mm 1 m/s 693 mmHg 56%
    18:00 +21°C° 0 mm 1 m/s 693 mmHg 66%
    19:00 +16°C° 0 mm 0 m/s 693 mmHg 76%
    20:00 +15°C° 0 mm 0 m/s 693 mmHg 78%
    21:00 +16°C° 0 mm 1 m/s 693 mmHg 81%
    22:00 +15°C° 0 mm 1 m/s 693 mmHg 84%
    23:00 +14°C° 0 mm 1 m/s 693 mmHg 85%

    24 August, Joi

    Timp Temperatura Precipitaţii Vânt Presiune Umiditate
    00:00 +14°C° 0 mm 1 m/s 693 mmHg 85%
    01:00 +14°C° 0 mm 1 m/s 693 mmHg 86%
    02:00 +14°C° 0 mm 1 m/s 693 mmHg 87%
    03:00 +13°C° 0 mm 1 m/s 693 mmHg 87%
    04:00 +13°C° 0 mm 1 m/s 693 mmHg 88%
    05:00 +14°C° 0 mm 1 m/s 693 mmHg 84%
    06:00 +15°C° 0 mm 0 m/s 693 mmHg 80%
    07:00 +16°C° 0 mm 0 m/s 694 mmHg 76%
    08:00 +19°C° 0 mm 0 m/s 694 mmHg 66%
    09:00 +24°C° 0 mm 1 m/s 695 mmHg 56%
    10:00 +27°C° 0 mm 1 m/s 695 mmHg 46%
    11:00 +27°C° 0 mm 1 m/s 695 mmHg 43%
    12:00 +28°C° 0 mm 1 m/s 695 mmHg 40%
    13:00 +29°C° 0 mm 1 m/s 695 mmHg 37%
    14:00 +29°C° 0 mm 1 m/s 695 mmHg 38%
    15:00 +28°C° 0 mm 1 m/s 695 mmHg 39%
    16:00 +28°C° 0 mm 1 m/s 695 mmHg 41%
    17:00 +25°C° 0 mm 1 m/s 694 mmHg 50%
    18:00 +23°C° 0 mm 1 m/s 694 mmHg 59%
    19:00 +20°C° 0 mm 1 m/s 694 mmHg 68%
    20:00 +20°C° 0,1 mm 1 m/s 694 mmHg 70%
    21:00 +19°C° 0,1 mm 1 m/s 694 mmHg 72%
    22:00 +18°C° 0,1 mm 1 m/s 694 mmHg 73%
    23:00 +16°C° 0 mm 1 m/s 694 mmHg 75%

    25 August, Vineri

    Timp Temperatura Precipitaţii Vânt Presiune Umiditate
    00:00 +16°C° 0 mm 1 m/s 694 mmHg 77%
    01:00 +15°C° 0 mm 1 m/s 694 mmHg 79%
    02:00 +15°C° 0 mm 1 m/s 693 mmHg 79%
    03:00 +15°C° 0 mm 1 m/s 693 mmHg 80%
    04:00 +14°C° 0 mm 1 m/s 693 mmHg 80%
    05:00 +16°C° 0 mm 1 m/s 694 mmHg 76%
    06:00 +16°C° 0 mm 0 m/s 694 mmHg 73%
    07:00 +17°C° 0 mm 0 m/s 694 mmHg 70%
    08:00 +20°C° 0 mm 0 m/s 695 mmHg 60%
    09:00 +23°C° 0 mm 0 m/s 696 mmHg 49%
    10:00 +26°C° 0 mm 0 m/s 696 mmHg 39%
    11:00 +29°C° 0 mm 1 m/s 696 mmHg 38%
    12:00 +30°C° 0 mm 1 m/s 696 mmHg 36%
    13:00 +30°C° 0 mm 1 m/s 696 mmHg 34%
    14:00 +30°C° 0 mm 1 m/s 696 mmHg 36%
    15:00 +30°C° 0 mm 1 m/s 695 mmHg 38%
    16:00 +29°C° 0 mm 1 m/s 695 mmHg 40%
    17:00 +26°C° 0 mm 1 m/s 695 mmHg 50%
    18:00 +24°C° 0 mm 1 m/s 694 mmHg 60%
    19:00 +19°C° 0 mm 0 m/s 694 mmHg 69%
    20:00 +18°C° 0 mm 0 m/s 694 mmHg 72%
    21:00 +19°C° 0 mm 1 m/s 694 mmHg 75%
    22:00 +19°C° 0 mm 1 m/s 694 mmHg 78%
    23:00 +18°C° 0 mm 1 m/s 694 mmHg 79%
    Arată mai mult